Change the Weather History Date:

Sunday, August 4, 2013

  Actual Average (KJLN) Record (KJLN)
Temperature  
Mean Temperature 71 °F 81 °F  
Max Temperature 73 °F 92 °F 107 °F (2012)
Min Temperature 69 °F 70 °F 50 °F (1974)
Degree Days  
Heating Degree Days 0 0  
Month to date heating degree days 0  
Since 1 June heating degree days 5  
Since 1 July heating degree days 0  
Cooling Degree Days 6 16  
Month to date cooling degree days 64  
Year to date cooling degree days 1035  
Since 1 June cooling degree days 855  
Growing Degree Days 21 (Base 50)    
Moisture  
Dew Point 70 °F    
Average Humidity 95    
Maximum Humidity 100    
Minimum Humidity 88    
Precipitation  
Precipitation 0.79 in 0.10 in 1.26 in (2013)
Month to date precipitation 0.39  
Year to date precipitation 28.01  
Sea Level Pressure  
Sea Level Pressure 30.10 in    
Wind  
Wind Speed 6 mph (ESE)    
Max Wind Speed 13 mph    
Max Gust Speed 17 mph    
Visibility 9 miles    
Events Rain , Thunderstorm    
T = Trace of Precipitation, MM = Missing Value Source: NWS Daily Summary

Daily Weather History Graph

Daily Weather History Graph

Search for Another Location

Airport or City:

Trip Planner

Search our weather history database for the weather conditions in past years. The results will help you decide how hot, cold, wet, or windy it might be!

Date:

Astronomy

Aug. 04, 2013 Rise Set
Actual Time 6:24 AM CDT 8:19 PM CDT
Civil Twilight 5:55 AM CDT 8:47 PM CDT
Nautical Twilight 5:21 AM CDT 9:22 PM CDT
Astronomical Twilight 4:44 AM CDT 9:59 PM CDT
Moon 4:26 AM CDT (8/4) 6:43 PM CDT (8/4)
Length of Visible Light 14h 52m
Length of Day
13h 55m
Waning Crescent, 4% of the Moon is Illuminated
Aug 4
Waning Crescent
Aug 6
New
Aug 14
First Quarter
Aug 20
Full
Aug 28
Last Quarter

Hourly Weather History & Observations

Time (CDT) Temp. Dew Point Humidity Pressure Visibility Wind Dir Wind Speed Gust Speed Precip Events Conditions
12:15 AM 73.4 °F 71.6 °F 94% 30.11 in 10.0 mi ESE 4.6 mph - N/A   Clear
12:35 AM 73.4 °F 71.6 °F 94% 30.11 in 10.0 mi ESE 5.8 mph - N/A   Clear
12:55 AM 73.4 °F 71.6 °F 94% 30.11 in 10.0 mi ESE 5.8 mph - N/A   Scattered Clouds
1:15 AM 73.4 °F 71.6 °F 94% 30.10 in 10.0 mi ESE 3.5 mph - N/A   Scattered Clouds
1:35 AM 71.6 °F 71.6 °F 100% 30.09 in 10.0 mi ESE 5.8 mph - N/A   Scattered Clouds
1:55 AM 71.6 °F 71.6 °F 100% 30.08 in 10.0 mi East 3.5 mph - N/A   Scattered Clouds
2:15 AM 71.6 °F 69.8 °F 94% 30.07 in 10.0 mi ESE 5.8 mph - N/A   Clear
2:35 AM 71.6 °F 69.8 °F 94% 30.08 in 10.0 mi East 4.6 mph - N/A   Clear
2:55 AM 71.6 °F 69.8 °F 94% 30.09 in 10.0 mi East 4.6 mph - N/A   Clear
3:15 AM 71.6 °F 69.8 °F 94% 30.08 in 10.0 mi East 6.9 mph - N/A   Clear
3:35 AM 71.6 °F 69.8 °F 94% 30.09 in 10.0 mi East 5.8 mph - N/A   Clear
3:55 AM 71.6 °F 69.8 °F 94% 30.10 in 10.0 mi East 6.9 mph - N/A   Clear
4:15 AM 71.6 °F 69.8 °F 94% 30.10 in 10.0 mi East 4.6 mph - N/A   Mostly Cloudy
4:35 AM 71.6 °F 69.8 °F 94% 30.10 in 10.0 mi ESE 5.8 mph - N/A   Overcast
4:55 AM 71.6 °F 69.8 °F 94% 30.09 in 10.0 mi ESE 4.6 mph - N/A   Overcast
5:15 AM 71.6 °F 69.8 °F 94% 30.09 in 10.0 mi ESE 5.8 mph - N/A   Overcast
5:35 AM 71.6 °F 69.8 °F 94% 30.08 in 10.0 mi ESE 5.8 mph - N/A   Overcast
5:55 AM 71.6 °F 69.8 °F 94% 30.08 in 10.0 mi ESE 6.9 mph - N/A   Scattered Clouds
6:15 AM 71.6 °F 69.8 °F 94% 30.09 in 10.0 mi East 6.9 mph - N/A   Scattered Clouds
6:35 AM 71.6 °F 69.8 °F 94% 30.10 in 10.0 mi SE 3.5 mph - N/A   Scattered Clouds
6:55 AM 71.6 °F 69.8 °F 94% 30.10 in 10.0 mi ESE 3.5 mph - N/A   Mostly Cloudy
7:15 AM 71.6 °F 69.8 °F 94% 30.12 in 10.0 mi ESE 4.6 mph - N/A Thunderstorm Mostly Cloudy
7:35 AM 71.6 °F 69.8 °F 94% 30.12 in 10.0 mi ESE 4.6 mph - N/A   Mostly Cloudy
7:55 AM 71.6 °F 69.8 °F 94% 30.12 in 10.0 mi SE 4.6 mph - N/A Thunderstorm Scattered Clouds
8:15 AM 71.6 °F 69.8 °F 94% 30.13 in 10.0 mi SE 5.8 mph - N/A Thunderstorm Mostly Cloudy
8:35 AM 71.6 °F 71.6 °F 100% 30.14 in 10.0 mi SSW 4.6 mph - N/A Rain , Thunderstorm Light Thunderstorms and Rain
8:55 AM 71.6 °F 71.6 °F 100% 30.15 in 7.0 mi WSW 4.6 mph - 0.01 in Rain , Thunderstorm Rain
9:15 AM 69.8 °F 69.8 °F 100% 30.15 in 7.0 mi WSW 8.1 mph - 0.06 in Rain Rain
9:35 AM 69.8 °F 68.0 °F 94% 30.16 in 7.0 mi Calm Calm - 0.10 in Rain , Thunderstorm Rain
9:55 AM 69.8 °F 68.0 °F 94% 30.16 in 5.0 mi North 4.6 mph - 0.16 in Rain , Thunderstorm Rain
10:15 AM 69.8 °F 68.0 °F 94% 30.17 in 4.0 mi NNE 5.8 mph - 0.05 in Rain Rain
10:35 AM 69.8 °F 68.0 °F 94% 30.18 in 2.0 mi SW 5.8 mph - 0.20 in Rain , Thunderstorm Heavy Thunderstorms and Rain
10:55 AM 69.8 °F 68.0 °F 94% 30.18 in 1.0 mi NE 5.8 mph - 0.50 in Rain , Thunderstorm Thunderstorms and Rain
11:15 AM 69.8 °F 69.8 °F 100% 30.18 in 10.0 mi NE 3.5 mph - 0.01 in Rain , Thunderstorm Light Thunderstorms and Rain
11:35 AM 69.8 °F 69.8 °F 100% 30.18 in 10.0 mi NE 5.8 mph - 0.02 in Rain , Thunderstorm Light Thunderstorms and Rain
11:55 AM 69.8 °F 69.8 °F 100% 30.17 in 10.0 mi NE 6.9 mph - 0.04 in Rain , Thunderstorm Rain
12:15 PM 69.8 °F 69.8 °F 100% 30.16 in 10.0 mi NE 8.1 mph - 0.01 in Rain Light Rain
12:35 PM 69.8 °F 69.8 °F 100% 30.17 in 10.0 mi ENE 8.1 mph - 0.02 in Rain Rain
12:55 PM 69.8 °F 69.8 °F 100% 30.16 in 10.0 mi East 9.2 mph - 0.03 in Rain Light Rain
1:15 PM 71.6 °F 69.8 °F 94% 30.15 in 10.0 mi East 8.1 mph - 0.01 in Rain Light Rain
1:35 PM 71.6 °F 69.8 °F 94% 30.15 in 7.0 mi East 8.1 mph - 0.02 in Rain Rain
1:55 PM 71.6 °F 71.6 °F 100% 30.13 in 10.0 mi East 8.1 mph - 0.04 in Rain Rain
2:15 PM 71.6 °F 71.6 °F 100% 30.13 in 10.0 mi East 5.8 mph - N/A Rain Rain
2:35 PM 71.6 °F 71.6 °F 100% 30.12 in 10.0 mi East 5.8 mph - 0.01 in Rain Rain
2:55 PM 71.6 °F 69.8 °F 94% 30.09 in 10.0 mi East 12.7 mph - 0.01 in Rain Light Rain
3:15 PM 71.6 °F 69.8 °F 94% 30.10 in 10.0 mi East 3.5 mph - N/A   Light Drizzle
3:35 PM 71.6 °F 69.8 °F 94% 30.10 in 10.0 mi ESE 8.1 mph - N/A   Clear
3:55 PM 71.6 °F 69.8 °F 94% 30.09 in 10.0 mi ESE 8.1 mph - N/A   Scattered Clouds
4:15 PM 71.6 °F 69.8 °F 94% 30.08 in 10.0 mi ESE 8.1 mph - N/A Rain Light Rain
4:35 PM 71.6 °F 69.8 °F 94% 30.07 in 10.0 mi SE 8.1 mph - N/A   Mostly Cloudy
4:55 PM 71.6 °F 69.8 °F 94% 30.07 in 10.0 mi ESE 6.9 mph - N/A Rain Light Rain
5:15 PM 71.6 °F 69.8 °F 94% 30.06 in 10.0 mi ESE 6.9 mph - N/A   Scattered Clouds
5:35 PM 71.6 °F 69.8 °F 94% 30.06 in 10.0 mi ESE 6.9 mph - N/A   Light Drizzle
5:55 PM 71.6 °F 69.8 °F 94% 30.05 in 10.0 mi SE 8.1 mph - N/A   Scattered Clouds
6:15 PM 71.6 °F 69.8 °F 94% 30.06 in 10.0 mi ESE 5.8 mph - N/A Rain Light Rain
6:35 PM 71.6 °F 69.8 °F 94% 30.05 in 10.0 mi ESE 9.2 mph - N/A Rain Light Rain
6:55 PM 71.6 °F 69.8 °F 94% 30.05 in 10.0 mi SE 6.9 mph - N/A Rain Light Rain
7:15 PM 69.8 °F 69.8 °F 100% 30.05 in 10.0 mi ESE 9.2 mph - N/A   Light Drizzle
7:35 PM 69.8 °F 68.0 °F 94% 30.05 in 10.0 mi ESE 8.1 mph - N/A   Overcast
7:55 PM 69.8 °F 68.0 °F 94% 30.06 in 10.0 mi ESE 4.6 mph - N/A   Overcast
8:15 PM 69.8 °F 68.0 °F 94% 30.05 in 10.0 mi ESE 6.9 mph - N/A   Overcast
8:35 PM 69.8 °F 68.0 °F 94% 30.06 in 10.0 mi ESE 6.9 mph - N/A   Overcast
8:55 PM 69.8 °F 68.0 °F 94% 30.05 in 10.0 mi ESE 5.8 mph - N/A   Overcast
9:15 PM 69.8 °F 68.0 °F 94% 30.05 in 10.0 mi East 6.9 mph - N/A   Overcast
9:35 PM 69.8 °F 68.0 °F 94% 30.05 in 10.0 mi ESE 6.9 mph - N/A   Overcast
9:55 PM 69.8 °F 68.0 °F 94% 30.06 in 10.0 mi ESE 6.9 mph - N/A   Overcast
10:15 PM 69.8 °F 68.0 °F 94% 30.06 in 10.0 mi ESE 10.4 mph - N/A   Overcast
10:35 PM 69.8 °F 68.0 °F 94% 30.06 in 10.0 mi ESE 9.2 mph - N/A   Overcast
10:55 PM 69.8 °F 66.2 °F 88% 30.06 in 10.0 mi ESE 9.2 mph - N/A   Overcast
11:15 PM 69.8 °F 66.2 °F 88% 30.05 in 10.0 mi ESE 12.7 mph 17.3 mph N/A   Overcast
11:35 PM 69.8 °F 66.2 °F 88% 30.05 in 10.0 mi ESE 10.4 mph - N/A   Mostly Cloudy
11:55 PM 69.8 °F 68.0 °F 94% 30.05 in 10.0 mi ESE 10.4 mph 17.3 mph N/A   Mostly Cloudy